Tracking 18630 objects as of 25-May-2017
HD Live streaming from Space Station
objects crossing your sky now

COSMOS 1285

Track COSMOS 1285 now!
COSMOS 1285 is classified as:


NORAD ID: 12627
Int'l Code: 1981-071A
Perigee: 5,641.4 km
Apogee: 35,182.1 km
Inclination: 68.9 °
Period: 727.0 minutes
Semi major axis: 26782 km
RCS: 7.7618 m2 (large)
Launch date: August 4, 1981
Source: Commonwealth of Independent States (former USSR) (CIS)
Launch site: PLESETSK MISSILE AND SPACE COMPLEX (PKMTR)
Your satellite tracking list
Your tracking list is empty





NASA's NSSDC Master Catalog

Two Line Element Set (TLE):
1 12627U 81071A   17144.90884185 -.00000031 +00000-0 +00000-0 0  9990
2 12627 068.9052 289.2478 5514870 076.8187 202.1534 01.98070564180935
Source of the keplerian elements: AFSPC